Simultaneous Nadir Overpasses (SNOs) Predictions

Prediction of SNOs between METOP-B and TERRA Satellite Orbit:

Table of predicted SNOs for the next 14.0 days since TLE Epoch: 8/6/2016
Index Date (METOP-B) Time (METOP-B) Lat,Lon (METOP-B) SZA (METOP-B ) Date (TERRA) Time (TERRA) Lat,Lon (TERRA) SZA (TERRA ) Distance(km) Time Diff (sec)
1 08/07/2016 08:01:24 81.27, 106.24 67.67 08/07/2016 08:01:55 81.27, 106.28 67.69 0.71 31
2 08/07/2016 08:52:04 -81.28, -86.01 112.28 08/07/2016 08:51:22 -81.27, -86.09 112.31 1.62 42
3 08/10/2016 03:35:48 81.28, 172.93 68.52 08/10/2016 03:36:08 81.28, 172.92 68.53 0.71 20
4 08/10/2016 04:26:28 -81.28, -19.27 111.42 08/10/2016 04:25:35 -81.28, -19.44 111.46 2.77 53
5 08/12/2016 23:10:12 81.27,-120.79 69.36 08/12/2016 23:10:21 81.27,-120.89 69.34 1.95 9
6 08/13/2016 00:00:52 -81.28, 47.05 110.58 08/12/2016 23:59:47 -81.29, 47.15 110.59 1.81 65
7 08/15/2016 17:53:57 -81.27, 138.06 109.80 08/15/2016 17:55:08 -81.27, 137.99 109.78 1.22 71
8 08/15/2016 18:44:37 81.27, -54.52 70.22 08/15/2016 18:44:34 81.27, -54.39 70.23 2.07 3
9 08/18/2016 13:28:22 -81.27,-155.65 108.90 08/18/2016 13:29:21 -81.27,-155.57 108.87 1.39 59




NCC Satellite Simultaneous Nadir Overpasses (SNOs) Prediction Service
